Regional Weather Roundup
Issued by NWS Kansas City/Pleasant Hill, MO

Home | Current Version | Previous Version | Text Only | Print | Product List | Glossary On
Versions: 1 2 3 4 5 6 7 8 9 10 11 12 13 14 15 16 17 18 19 20 21 22 23 24 25 26 27 28 29 30 31 32 33 34 35 36 37 38 39 40 41 42 43 44 45 46 47 48 49 50
000
ASUS43 KEAX 042210
RWREAX

WEATHER ROUNDUP FOR EASTERN KANSAS AND NORTHWEST MISSOURI
NATIONAL WEATHER SERVICE KANSAS CITY/PLEASANT HILL MO
500 PM CDT FRI SEP 04 2015

KSZ040-057-103>105-MOZ028-029-037-043-042300-
...KANSAS CITY METROPOLITAN AREA...

CITY           SKY/WX    TMP DP  RH WIND       PRES   REMARKS
K.C. INTL      MOSUNNY   92  67  43 S15       29.94F HX  95
K.C. DOWNTOWN  MOSUNNY   93  68  43 S13       29.92F HX  97
LEES SUMMIT    SUNNY     90  65  43 S12G20    29.96S HX  92
OLATHE - IXD   SUNNY     89  68  49 SE13      29.96S HX  93
OLATHE - OJC   SUNNY     87  68  52 S13       29.95S HX  90
LAWRENCE       SUNNY     91  66  43 S13       29.92F HX  93

$$

MOZ001>008-011>017-020>025-030>033-038>040-044>046-053-054-042300-
...NORTHERN AND CENTRAL MISSOURI...

CITY           SKY/WX    TMP DP  RH WIND       PRES   REMARKS
ST. JOSEPH     SUNNY     90  68  48 S16       29.91F HX  94
MOSBY          CLEAR     90  63  40 S10       29.93F HX  90
WARRENSBURG    MOSUNNY   90  64  43 S6        29.96R HX  91
WHITEMAN AFB   SUNNY     92  67  43 SW10      29.95S HX  95
CLINTON        SUNNY     91  70  49 S8        29.97S HX  97
SEDALIA        MOSUNNY   93  65  39 S13       29.98F HX  95
WARSAW         NOT AVBL
CHILLICOTHE      N/A     92  69  47 S9        29.95S HX  97
KIRKSVILLE     PTSUNNY   90  68  48 S9        29.98S HX  94

$$

MOZ041-047>049-056>058-063>065-088>090-097-042300-
...EASTERN AND SOUTHERN MISSOURI...

CITY           SKY/WX    TMP DP  RH WIND       PRES   REMARKS
ST. LOUIS INTL MOSUNNY   92  66  42 S5        29.99S HX  94
SPIRIT OF STL  MOSUNNY   91  69  48 SW6       29.98R HX  96
COLUMBIA       MOSUNNY   91  68  46 SE6       29.99S HX  95
JEFFERSON CITY PTSUNNY   92  68  45 E8        29.96S HX  96
ROLLA          SUNNY     91  66  43 S6        30.00S HX  93
OSAGE BEACH    PTSUNNY   91  66  43 S9        30.00S HX  94
SPRINGFIELD    MOSUNNY   89  67  47 S8        30.00F HX  92
BRANSON        MOSUNNY   90  66  45 SE9       30.02S HX  92
JOPLIN         MOSUNNY   89  70  53 S8        29.97  HX  94
WEST PLAINS    MOSUNNY   89  66  46 SE6       30.04S HX  91

$$

IAZ060-094-KSZ022-034>040-054-083-096-NEZ052-066-093-042300-
...KANSAS...SOUTHEAST NEBRASKA AND IOWA...

CITY           SKY/WX    TMP DP  RH WIND       PRES   REMARKS
TOPEKA         SUNNY     91  67  44 S16       29.91F HX  94
MANHATTAN      SUNNY     94  64  37 S17G24    29.87F HX  95
EMPORIA        SUNNY     90  66  45 S18       29.92S HX  92
CHANUTE        SUNNY     89  69  51 S14       29.95F HX  93
WICHITA        MOSUNNY   94  65  38 S15       29.89F HX  96
OMAHA          MOSUNNY   89  71  55 SE20      29.86F HX  95
LINCOLN        MOSUNNY   91  67  44 S21       29.84S HX  94
FALLS CITY     SUNNY     92  66  42 S16G24    29.89F HX  94
LAMONI         SUNNY     90  69  50 S10       29.95S HX  94
DES MOINES     PTSUNNY   89  68  49 S13       29.93S HX  93

$$



USA.gov is the U.S. government's official web portal to all federal, state and local government web resources and services.